Weather History for Worland, WY

Change the Weather History Date:

Tuesday, May 21, 2013

  Actual Average Record
Temperature  
Mean Temperature 54 °F 57 °F  
Max Temperature 69 °F 72 °F 90 °F (1964)
Min Temperature 38 °F 43 °F 31 °F (2001)
Degree Days  
Heating Degree Days 11 8  
Month to date heating degree days 185 239  
Since 1 July heating degree days 7364 7706  
Cooling Degree Days 0 0  
Month to date cooling degree days 16 0  
Year to date cooling degree days 16 1  
Growing Degree Days 2 (Base 50)    
Moisture  
Dew Point 29 °F    
Average Humidity 52    
Maximum Humidity 92    
Minimum Humidity 11    
Precipitation  
Precipitation 0.00 in 0.04 in 0.28 in (1975)
Month to date precipitation 0.78 0.94  
Year to date precipitation 2.35 2.68  
Sea Level Pressure  
Sea Level Pressure 29.94 in    
Wind  
Wind Speed 6 mph (NNW)    
Max Wind Speed 21 mph    
Max Gust Speed 25 mph    
Visibility 10 miles    
Events      
T = Trace of Precipitation, MM = Missing Value Source: NWS Daily Summary

Daily Weather History Graph

Daily Weather History Graph

Search for Another Location

Airport:

Trip Planner

Search our weather history database for the weather conditions in past years. The results will help you decide how hot, cold, wet, or windy it might be!

Date:

Astronomy

May. 21, 2013 Rise Set
Actual Time 5:39 AM MDT 8:37 PM MDT
Civil Twilight 5:05 AM MDT 9:12 PM MDT
Nautical Twilight 4:22 AM MDT 9:55 PM MDT
Astronomical Twilight 3:30 AM MDT 10:47 PM MDT
Moon 4:48 PM MDT (5/21) 3:17 AM MDT (5/21)
Length of Visible Light 16h 06m
Length of Day
14h 58m
Waxing Gibbous, 84% of the Moon is Illuminated
May 21
Waxing Gibbous
May 24
Full
May 31
Last Quarter
Jun 8
New
Jun 16
First Quarter

Hourly Weather History & Observations

Time (MDT) Temp. Windchill Dew Point Humidity Pressure Visibility Wind Dir Wind Speed Gust Speed Precip Events Conditions
12:53 AM 48.9 °F - 33.1 °F 54% 30.05 in 10.0 mi NW 11.5 mph - N/A   Overcast
1:53 AM 48.0 °F - 34.0 °F 58% 30.05 in 10.0 mi NW 8.1 mph - N/A   Overcast
2:53 AM 46.9 °F - 34.0 °F 61% 30.04 in 10.0 mi WNW 6.9 mph - N/A   Scattered Clouds
3:53 AM 46.0 °F - 37.0 °F 71% 30.04 in 10.0 mi Calm Calm - N/A   Overcast
4:53 AM 44.1 °F - 37.0 °F 76% 30.05 in 10.0 mi Calm Calm - N/A   Overcast
5:53 AM 37.9 °F 34.4 °F 35.1 °F 89% 30.07 in 10.0 mi SW 4.6 mph - N/A   Clear
6:53 AM 45.0 °F - 37.9 °F 76% 30.06 in 10.0 mi Calm Calm - N/A   Clear
7:53 AM 48.0 °F - 36.0 °F 63% 30.06 in 10.0 mi Calm Calm - N/A   Clear
8:53 AM 52.0 °F - 36.0 °F 54% 30.04 in 10.0 mi NW 4.6 mph - N/A   Clear
9:53 AM 54.0 °F - 36.0 °F 51% 30.04 in 10.0 mi Variable 3.5 mph - N/A   Clear
10:53 AM 59.0 °F - 32.0 °F 36% 30.00 in 10.0 mi North 6.9 mph - N/A   Clear
11:53 AM 62.1 °F - 28.0 °F 28% 29.97 in 10.0 mi North 8.1 mph - N/A   Clear
12:53 PM 63.0 °F - 24.1 °F 23% 29.94 in 10.0 mi Variable 4.6 mph - N/A   Clear
1:53 PM 66.0 °F - 24.1 °F 20% 29.91 in 10.0 mi WNW 9.2 mph - N/A   Clear
2:53 PM 68.0 °F - 23.0 °F 18% 29.88 in 10.0 mi West 8.1 mph - N/A   Clear
3:53 PM 68.0 °F - 18.0 °F 15% 29.86 in 10.0 mi Variable 4.6 mph - N/A   Clear
4:53 PM 66.9 °F - 17.1 °F 15% 29.84 in 10.0 mi Variable 6.9 mph - N/A   Clear
5:53 PM 68.0 °F - 12.9 °F 12% 29.84 in 10.0 mi Calm Calm - N/A   Clear
6:53 PM 68.0 °F - 17.1 °F 14% 29.81 in 10.0 mi NNE 5.8 mph - N/A   Clear
7:53 PM 64.0 °F - 27.0 °F 25% 29.81 in 10.0 mi ENE 4.6 mph - N/A   Clear
8:53 PM 54.0 °F - 30.0 °F 40% 29.82 in 10.0 mi ESE 5.8 mph - N/A   Clear
9:53 PM 53.1 °F - 25.0 °F 34% 29.83 in 10.0 mi SE 6.9 mph - N/A   Mostly Cloudy
10:53 PM 57.0 °F - 35.1 °F 44% 29.81 in 10.0 mi ESE 18.4 mph - N/A   Overcast
11:53 PM 54.0 °F - 36.0 °F 51% 29.81 in 10.0 mi ESE 16.1 mph - N/A   Clear